User: anonymous   Login
Location: Unspecified
(0.0000°N, 0.0000°E)
Time: 03:17:56
(UTC+01:00)
Language:

ISS - Orbit

View from above orbital plane
View from above orbital plane
View from above satellite
View from above satellite

Ground track
Ground track

The orbit data is extracted from the following two-line orbital elements,

1 25544U 98067A   17344.99236677  .00016717  00000-0  10270-3 0  9038
2 25544  51.6409 236.9246 0003372 222.3896 137.6996 15.54158287  9248
Epoch (UTC): 10 December 2017 23:49:00
Eccentricity: 0.0003372
inclination: 51.6409°
perigee height: 402 km
apogee height: 407 km
right ascension of ascending node: 236.9246°
argument of perigee: 222.3896°
revolutions per day: 15.54158287
mean anomaly at epoch: 137.6996°
orbit number at epoch: 924

The dashed part of the orbit path shows where the satellite is in the earth's shadow,  

DLR